Location: Elk Horn Observatory
(36.6768°N, 80.8309°W)
Time: 12:35:38
(UTC-04:00)

Tiangong 2 - Pass Details

Date: 24 February 2019
Orbit: 379 x 390 km, 42.8° (Epoch: 21 March)

Event Time Altitude Azimuth Distance (km) Brightness Sun altitude
Rises 18:40:18 0° 275° (W) 2,252 7.0 -6.3°
Reaches altitude 10° 18:43:46 10° 235° (SW) 1,390 5.0 -7.0°
Maximum altitude 18:44:31 11° 221° (SW) 1,351 4.6 -7.1°
Drops below altitude 10° 18:45:17 10° 207° (SSW) 1,387 4.4 -7.3°
Sets 18:48:43 0° 166° (SSE) 2,230 4.8 -8.0°
